Retour au catalogue

STARLINK-33939

ActifCommunicationsVLEO
NORAD 63702·PAYLOAD·🇺🇸 United States

Lancé Apr 28, 2025 depuis Vandenberg Space Force Base

Loading…

Prochains Passages (prochaines 24 heures)

TLE

FraisSource: CelesTrak SupGP

Époque: Sep 15, 2026, 02:41 UTC

1 63702C 25087F   26258.11229167 -.00029679  00000+0 -95477-3 0  2589
2 63702  53.1586  58.3241 0001040  87.6063 163.9928 15.31704772    12

Suivez STARLINK-33939 en temps réel avec AllMySat

Download on the App Store